map of BVC home
BVC - Airport
Location
City:  Rabil, Boa Vista, Cape Verde
Name:Rabil International Airport
ICAO:GVBA
IATA:BVC

Details
Type:Airport (Aerodrome, Airfield)
Use:Public/Civil, International (customs port of entry)
Latitude:1608'12"N (16.136531)
Longitude:2253'20"W (-22.888896)
Datum:WGS 1984
Elevation:69 ft (21 m)
Variation:9.05W (WMM2015v2 magnetic declination)
0.16 annual change
Runways:1
Longest:4007 × 98 ft (1221 × 30 m), paved

Time
Time Zone:UTC-1
Local Time:

Weather
METAR:GVBA 041400Z 03014KT 9999 BKN015 SCT200 23/15 Q1017 NOSIG
TAF:GVBA 041100Z 0412/0518 04015KT 9999 SCT015 PROB30
TEMPO 0502/0506 04005KT

Related Locations
Nearby:
Farthest:RNL: 12062 mi / 19411 km
Tingoa [Rennell/Tingoa Airport], Rennell Island, RB, SB

Find:

   beyond  
but within

Other Information
Maps:
NOTAMs:
Links:
Sources:

  
  • flag of Cape Verde
  

Sectional Chart

Flight Planning
at skyvector.com

Satellite Image

Google Maps Satellite view

 

Copyright © 2004-2019 Karl L. Swartz. All rights reserved.
The Great Circle Mapper name and logo are trademarks of the Great Circle Mapper.
All other trademarks mentioned herein belong to their respective owners.
Please see credits for attibutions and further copyright information.

  Follow gcmap on Facebook Follow gcmap on Twitter GCmap on LinkedIn

hCard Microformat

Geo Microformat